TimeMDT,TemperatureF,Dew PointF,Humidity,Sea Level PressureIn,VisibilityMPH,Wind Direction,Wind SpeedMPH,Gust SpeedMPH,PrecipitationIn,Events,Conditions,WindDirDegrees,DateUTC
12:53 AM,39.0,27.0,62,30.19,10.0,Calm,Calm,-,N/A,,Clear,0,2013-03-14 06:53:00
1:53 AM,39.9,27.0,60,30.20,10.0,WNW,3.5,-,N/A,,Clear,290,2013-03-14 07:53:00
2:53 AM,39.0,28.0,65,30.19,10.0,West,4.6,-,N/A,,Overcast,270,2013-03-14 08:53:00
3:53 AM,39.0,28.0,65,30.18,10.0,WSW,4.6,-,N/A,,Clear,250,2013-03-14 09:53:00
4:53 AM,36.0,27.0,70,30.18,10.0,WSW,4.6,-,N/A,,Clear,250,2013-03-14 10:53:00
5:53 AM,36.0,27.0,70,30.20,10.0,SSW,3.5,-,N/A,,Clear,210,2013-03-14 11:53:00
6:53 AM,34.0,26.1,73,30.22,10.0,Calm,Calm,-,N/A,,Partly Cloudy,0,2013-03-14 12:53:00
7:53 AM,32.0,26.1,79,30.24,10.0,West,5.8,-,N/A,,Clear,260,2013-03-14 13:53:00
8:53 AM,34.0,28.0,79,30.25,10.0,WSW,3.5,-,N/A,,Clear,250,2013-03-14 14:53:00
9:53 AM,37.9,28.9,70,30.25,10.0,Calm,Calm,-,N/A,,Clear,0,2013-03-14 15:53:00
10:53 AM,43.0,28.0,56,30.24,10.0,West,4.6,-,N/A,,Clear,280,2013-03-14 16:53:00
11:53 AM,46.0,28.9,51,30.21,10.0,Variable,3.5,-,N/A,,Mostly Cloudy,0,2013-03-14 17:53:00
12:53 PM,50.0,28.9,44,30.19,10.0,Calm,Calm,-,N/A,,Clear,0,2013-03-14 18:53:00
1:53 PM,54.0,28.9,38,30.15,10.0,Calm,Calm,-,N/A,,Partly Cloudy,0,2013-03-14 19:53:00
2:53 PM,61.0,28.9,30,30.09,10.0,Calm,Calm,-,N/A,,Scattered Clouds,0,2013-03-14 20:53:00
3:53 PM,61.0,27.0,27,30.08,10.0,Calm,Calm,-,N/A,,Mostly Cloudy,0,2013-03-14 21:53:00
4:53 PM,61.0,26.1,26,30.06,10.0,ESE,4.6,-,N/A,,Clear,110,2013-03-14 22:53:00
5:53 PM,61.0,28.0,29,30.04,10.0,Calm,Calm,-,N/A,,Clear,0,2013-03-14 23:53:00
6:53 PM,57.9,28.9,33,30.03,10.0,Calm,Calm,-,N/A,,Clear,0,2013-03-15 00:53:00
7:53 PM,54.0,28.9,38,30.03,10.0,SW,8.1,-,N/A,,Clear,230,2013-03-15 01:53:00
8:53 PM,46.0,28.0,50,30.04,10.0,NNE,4.6,-,N/A,,Clear,30,2013-03-15 02:53:00
9:53 PM,46.9,28.9,50,30.00,10.0,WNW,4.6,-,N/A,,Clear,300,2013-03-15 03:53:00
10:53 PM,44.1,27.0,51,29.99,10.0,Variable,3.5,-,N/A,,Clear,0,2013-03-15 04:53:00
11:53 PM,44.1,27.0,51,30.00,10.0,NNW,4.6,-,N/A,,Clear,340,2013-03-15 05:53:00